www.pogodaiklimat.ru

Погода и климат >> Архив погоды >> Антарктида >> McMurdo


АРХИВ ПОГОДЫ в McMurdo

Время (UTC), дата Ветер
(напр.,м/с)
 
Видим.   Явления Облачность Т
(С)
Тd
(С)
f
(%)
Тe
(С)
Тes
(С)
Комфортность P
(гПа)
Po
(гПа)
Тmin
(С)
Tmax
(С)
R
(мм)
R24
(мм)
S
(см)
00 17.06 В 10 9000 м метель {снег} 10/10 1500 м
[Sc]
-20.3 -25.8 61 -34 -34 опасность
обморожения
996.8 992.3 -25.0 -17.9
06 17.06 В 9 11 км позёмок {метель} 10/0
[As op]
-19.9 -29.6 42 -33 -33 опасность
обморожения
998.6 994.1
12 17.06 В 7 11 км ясно -19.3 -30.6 36 -31 -31 опасность
обморожения
999.4 994.9 -22.4 -19.0 0.0
18 17.06 В 7 11 км {метель} ясно -16.6 -26.4 42 -27 -27 по сезону 1000.2 995.8
00 18.06 В 8 11 км 6/0
[Ac trans]
-13.8 -25.2 38 -24 -24 по сезону 999.0 994.5 -18.9 -13.3
06 18.06 ЮВ 6 11 км слабый снег 10/10 1200 м
[]
-11.2 -20.8 45 -20 -20 тепло 998.6 994.2
12 18.06 ЮВ 6 11 км {снег} 10/0 2000 м
[Ac As]
-10.6 -19.8 47 -19 -19 тепло 998.3 993.9 -14.0 -9.7 0.0
18 18.06 ЮВ 7 11 км 10/1 1500 м
[Sc As op]
-9.7 -18.6 48 -18 -18 тепло 998.0 993.6
00 19.06 В 8 11 км {метель} 10/3 1500 м
[Sc As op]
-11.0 -17.5 59 -21 -21 тепло 997.9 993.5 -11.5 -8.7
06 19.06 ЮВ 10 11 км {метель} 10/0 2000 м
[As op]
-10.8 -19.8 47 -21 -21 тепло 997.0 992.7
12 19.06 ЮВ 9 11 км 10/0 2000 м
[As op]
-12.5 -19.1 58 -23 -23 тепло 994.3 989.9 -12.8 -8.4
18 19.06 В 10 11 км 10/0 2000 м
[As op]
-13.4 -21.0 53 -25 -25 по сезону 996.3 991.9
00 20.06 ЮВ 5 11 км 10/10 1500 м
[Sc]
-15.1 -20.9 61 -24 -24 по сезону 997.9 993.5 -15.7 -9.0
06 20.06 В 8 11 км 10/0 2000 м
[Ac trans Cs]
-13.4 -22.4 47 -24 -24 по сезону 1002.1 997.7
12 20.06 В 5 11 км ясно -16.6 -24.5 50 -26 -26 по сезону 1004.9 1000.5 -16.8 -11.4
18 20.06 СВ 11 11 км позёмок 3/0
[Cs]
-19.6 -27.2 51 -34 -34 опасность
обморожения
1002.1 997.6
00 21.06 В 7 11 км 6/0
[Cs]
-18.2 -26.4 49 -29 -29 по сезону 1000.8 996.3 -20.5 -13.1
06 21.06 В 7 11 км 9/9 1500 м
[Sc]
-16.9 -26.1 45 -27 -27 по сезону 998.5 994.0
12 21.06 СВ 6 11 км 3/0
[Ac trans]
-15.6 -26.0 40 -25 -25 по сезону 997.3 992.8 -18.6 -15.3
18 21.06 В 2 11 км 10/0 2000 м
[As op Cs]
-15.8 -26.9 38 -21 -21 тепло 996.4 992.0
00 22.06 нст 2 11 км 9/0
[Cs]
-14.6 -23.9 45 -20 -20 тепло 995.1 990.8 -20.5 -14.5
06 22.06 ЮВ 4 11 км 1/0
[Cs]
-12.0 -23.7 37 -19 -19 тепло 995.2 990.9
12 22.06 В 7 11 км ясно -19.0 -24.1 64 -31 -31 опасность
обморожения
998.3 993.8 -19.5 -11.8
18 22.06 В 8 11 км 3/0
[Cs]
-20.2 -26.4 58 -33 -33 опасность
обморожения
1000.9 996.5
00 23.06 нст 2 11 км 3/0
[Cs]
-19.6 -26.4 55 -24 -24 по сезону 1003.9 999.4 -20.7 -16.8
06 23.06 штиль 0 11 км ясно -22.7 -27.1 67 -23 -23 тепло 1005.6 1001.1
12 23.06 СВ 4 11 км 8/0
[Cs]
-18.8 -21.7 78 -28 -28 по сезону 1005.4 1000.9 -26.1 -17.1
18 23.06 В 3 11 км 10/0 2000 м
[As op]
-17.9 -24.2 58 -24 -24 тепло 1004.2 999.7

 

Местоположение метеостанции McMurdo (Антарктида): широта -77.85 долгота 166.66 высота над уровнем моря 24 м.

В архиве по умолчанию представлена погода в McMurdo за последнюю неделю. Архивные данные за месяц целиком и за предыдущие месяцы, начиная с января 2011 года, Вы можете получить, выбрав интересующий диапазон дат из раскрывающегося списка и нажав кнопку "Ввод!".


*Определитесь, кто Вы:
робот инопланетянин человек

Внимание! Время в таблицах - всемирное. Для получения местного времени необходимо прибавить поправку, которая в McMurdo равна 0 ч.

Смотрите также архив погоды в соседних городах и на ближайших метеорологических станциях:

Погода в Pegasus North (Антарктида) (12 км)
Погода в Linda (Антарктида) (78 км)
Погода в Minna Bluff (Антарктида) (78 км)
Погода в Marble Point (Антарктида) (84 км)
Погода в Ferrell (Антарктида) (97 км)
Погода в Cape Ross (Антарктида) (156 км)
Погода в Marilyn (Антарктида) (236 км)
Погода в Schwerdtfeger (Антарктида) (236 км)
Погода в Manuela (Антарктида) (333 км)
Погода в Baia Terra Nova (Антарктида) (357 км)

Пояснения к столбцам:

Ветер - указаны скорость ветра в м/с - средняя за 10 мин, порывы в срок и между сроками (в фигурных скобках) и направление, откуда дует ветер: С - северный, СВ - северо-восточный, В - восточный, ЮВ - юго-восточный, Ю - южный, ЮЗ - юго-западный, З - западный, СЗ - северо-западный.
Видимость - горизонтальная дальность видимости в метрах или километрах. При видимости от 1 до 10 км при отсутствии осадков обычно наблюдается дымка, при ухудшении видимости до 1 км и менее - туман. В сухую погоду видимость может ухудшаться дымом, пылью или мглою.
Явления - указаны атмосферные явления, наблюдавшиеся в срок или в последний час перед сроком; фигурными скобками обозначены явления, наблюдавшиеся между сроками (за 1-3 часа до срока); квадратными скобками обозначены град или гололедные отложения с указанием их диаметра в мм.
Облачность - указаны через наклонную черту общая и нижняя облачность в баллах и высота нижней границы облаков в метрах; квадратными скобками обозначены формы облаков: Ci - перистые, Cs - перисто-слоистые, Cc - перисто-кучевые, Ac - высококучевые, As - высокослоистые, Sc - слоисто-кучевые, Ns - слоисто-дождевые, Cu - кучевые, Cb - кучево-дождевые. Подробнее классификацию облаков см. в Атласе облаков (PDF).
T - Температура воздуха - температура, измеренная на высоте 2 м над землей.
Td - Температура точки росы - температура, при понижении до которой содержащийся в воздухе водяной пар достигнет насыщения.
f - Относительная влажность воздуха - влажноcть воздуха, измеренная на высоте 2 м над землей.
Te - Эффективная температура - температура, которую ощущает одетый по сезону человек в тени. Характеристика душности погоды. При расчете учитывается влияние влажности воздуха и скорости ветра на теплоощущения человека.
Tes - Эффективная температура на солнце - температура, которую ощущает человек, с поправкой на солнечный нагрев. Характеристика знойности погоды. Зависит от высоты солнца над горизонтом, облачности и скорости ветра. Ночью, в пасмурную погоду, а также при ветре 12 м/с и более поправка равна нулю.
P - Атмосферное давление - приведенное к уровню моря атмосферное давление.
Po - Атмосферное давление - измеренное на уровне метеостанции атмосферное давление.
Tmin - Минимальная температура - минимум температуры воздуха на высоте 2 м над землей.
Tmax - Максимальная температура - максимум температуры воздуха на высоте 2 м над землей.
R - Количество осадков - Количество выпавших осадков за период времени, мм. При наведении курсора мыши на число - период времени, за который выпало указанное количество осадков.
R24 - Количество осадков - Количество выпавших осадков за 24 часа, мм.
S - Снежный покров - Высота снежного покрова, см. При наведении курсора мыши на число - состояние снежного покрова и степень покрытия местности в баллах.